Terug naar catalogus

STARLINK-32488

ActiefCommunicatieVLEO
NORAD 62125·PAYLOAD·🇺🇸 United States

Gelanceerd Nov 27, 2024 vanaf Cape Canaveral Space Force Station

Loading…

Volgende Passages (komende 24 uur)

TLE

VersSource: CelesTrak SupGP

Epoch: Sep 14, 2026, 21:32 UTC

1 62125C 24222M   26257.89770833 -.00059605  00000+0 -21589-2 0  2575
2 62125  42.9995 147.9838 0001301 271.2141  23.9001 15.27607806    17

Volg STARLINK-32488 in realtime met AllMySat

Download on the App Store